FW9405 Weather Reports


Display with metric or nautical units.
time (UTC)temp
F
wind
direction
speed
MPH
gust
MPH
rain 1hr
in
rain 24hr
in
rain mn
in
humidity
%
barometer
mb
20260508084820 0 237 1.0 4.0 0.00 0.00 0.00 1001.7
20260508084317 0 238 2.0 3.0 0.00 0.00 0.00 1001.5
20260508083814 0 307 2.0 6.0 0.00 0.00 0.00 1001.4
20260508083312 0 279 2.0 3.0 0.00 0.00 0.00 1001.4
20260508082811 0 325 1.0 2.0 0.00 0.00 0.00 1001.2
20260508082309 0 257 1.0 3.0 0.00 0.00 0.00 1001.4
20260508081806 0 282 1.0 2.0 0.00 0.00 0.00 1001.0
20260508081303 0 261 2.0 2.0 0.00 0.00 0.00 1001.2
20260508080800 0 340 0.0 2.0 0.00 0.00 0.00 1001.1
20260508080258 0 255 2.0 3.0 0.00 0.00 0.00 1000.9
20260508075754 0 270 1.0 2.0 0.00 0.00 0.00 1001.2
20260508075251 0 246 1.0 2.0 0.00 0.00 0.00 1000.9
20260508074749 0 162 0.0 0.0 0.00 0.00 0.00 1001.0
20260508074246 0 158 0.0 2.0 0.00 0.00 0.00 1001.0
20260508073743 0 180 0.0 2.0 0.00 0.00 0.00 1001.1
20260508073241 0 75 1.0 1.0 0.00 0.00 0.00 1000.9
20260508072737 0 132 2.0 2.0 0.00 0.00 0.00 1001.2
20260508072234 0 203 0.0 2.0 0.00 0.00 0.00 1001.0
20260508071731 0 201 3.0 4.0 0.00 0.00 0.00 1000.8
20260508071229 0 203 3.0 3.0 0.00 0.00 0.00 1000.8
20260508070727 0 214 2.0 3.0 0.00 0.00 0.00 1001.0
20260508070225 0 236 0.0 0.0 0.00 0.00 0.00 1000.9
20260508065722 0 236 0.0 3.0 0.00 0.00 0.00 1000.7
20260508065220 0 294 1.0 2.0 0.00 0.00 0.00 1000.9
20260508064717 0 270 1.0 3.0 0.00 0.00 0.00 1000.7
20260508064216 0 20 1.0 1.0 0.00 0.00 0.00 1001.0
20260508063713 0 270 2.0 2.0 0.00 0.00 0.00 1000.8
20260508063210 0 339 2.0 2.0 0.00 0.00 0.00 1001.0
20260508062707 0 0 1.0 2.0 0.00 0.00 0.00 1000.5
20260508062204 0 346 0.0 1.0 0.00 0.00 0.00 1000.7
20260508061702 0 194 0.0 1.0 0.00 0.00 0.00 1000.6
20260508061159 0 157 3.0 4.0 0.00 0.00 0.00 1000.6
20260508060655 0 140 3.0 3.0 0.00 0.00 0.00 1000.6
20260508060153 0 152 2.0 3.0 0.00 0.00 0.00 1000.6
20260508055648 0 147 2.0 3.0 0.00 0.00 0.00 1000.5
20260508055145 0 162 1.0 1.0 0.00 0.00 0.00 1000.3
20260508054642 0 275 2.0 3.0 0.00 0.00 0.00 1000.4
20260508054139 0 259 2.0 2.0 0.00 0.00 0.00 1000.7
20260508053636 0 26 0.0 1.0 0.00 0.00 0.00 1000.5
20260508053134 0 161 2.0 2.0 0.00 0.00 0.00 1000.5
20260508052631 0 160 0.0 1.0 0.00 0.00 0.00 1000.5
20260508052128 0 249 0.0 0.0 0.00 0.00 0.00 1000.4
20260508051624 0 278 0.0 2.0 0.00 0.00 0.00 1000.4
20260508051120 0 255 0.0 4.0 0.00 0.00 0.00 1000.4
20260508050616 0 270 0.0 3.0 0.00 0.00 0.00 1000.5
20260508050114 0 109 1.0 3.0 0.00 0.00 0.00 1000.3
20260508045609 0 81 2.0 2.0 0.00 0.00 0.00 1000.4
20260508045108 0 185 0.0 2.0 0.00 0.00 0.00 1000.5
20260508044604 0 206 0.0 2.0 0.00 0.00 0.00 1000.3
20260508044100 0 230 2.0 3.0 0.00 0.00 0.00 1000.2
20260508043557 0 200 0.0 3.0 0.00 0.00 0.00 1000.4
20260508043055 0 331 0.0 1.0 0.00 0.00 0.00 1000.3
20260508042551 0 198 0.0 0.0 0.00 0.00 0.00 1000.2
20260508042049 0 159 2.0 3.0 0.00 0.00 0.00 1000.1
20260508041545 0 340 1.0 3.0 0.00 0.00 0.00 1000.3
20260508041041 0 270 0.0 2.0 0.00 0.00 0.00 1000.2
20260508040538 0 168 2.0 2.0 0.00 0.00 0.00 999.9
20260508040036 0 245 3.0 5.0 0.00 0.00 0.00 999.9
20260508035532 0 280 3.0 5.0 0.00 0.00 0.00 1000.1
20260508035030 0 255 4.0 6.0 0.00 0.00 0.00 999.9
20260508034527 0 281 2.0 5.0 0.00 0.00 0.00 999.9
20260508034024 0 266 4.0 6.0 0.00 0.00 0.00 999.7
20260508033521 0 285 5.0 7.0 0.00 0.00 0.00 999.7
20260508033019 0 266 2.0 5.0 0.00 0.00 0.00 999.7
20260508032516 0 256 5.0 5.0 0.00 0.00 0.00 999.7
20260508032014 0 254 4.0 5.0 0.00 0.00 0.00 999.8
20260508031510 0 278 1.0 4.0 0.00 0.00 0.00 999.5
20260508031005 0 287 0.0 4.0 0.00 0.00 0.00 999.1
20260508030503 0 294 3.0 3.0 0.00 0.00 0.00 999.4
20260508030000 0 270 2.0 5.0 0.00 0.00 0.00 999.3